Location: Ladrillo (historical)
(32.8195°N, 117.2231°W)
Time: 16:47:06
(UTC+00:00)

NOAA 18 - Pass Details

Date: 25 April 2021
Orbit: 840 x 861 km, 99.0° (Epoch: 11 May)

Event Time Altitude Azimuth Distance (km) Brightness Sun altitude
Exits shadow 06:13:56 20° 289° (WNW) 1,862 7.3 -38.8°
Drops below altitude 10° 06:16:30 10° 315° (NW) 2,461 8.3 -39.1°
Sets 06:19:23 0° 330° (NNW) 3,398 9.3 -39.4°
